Theta_e
314 314 314 314 314 314 314 315 316 315 315 314 314 315 316 316 317 315 312 317 321 329 333 328 326 325 323 319 318 320 311 308 310 311 313 318 317 321 323 320 322 323 323 326 328
313 313 314 313 313 313 313 314 314 315 316 315 314 314 315 316 313 310 322 325 331 333 314 317 319 320 317 317 317 314 311 311 316 317 316 318 319 319 319 319 319 321 325 327 328
311 312 313 313 313 313 313 313 313 314 314 315 314 314 314 315 309 309 326 328 331 327 313 314 320 320 315 317 317 315 310 316 318 319 319 319 318 320 318 316 320 319 322 325 326
311 311 313 313 313 313 313 313 313 314 313 314 314 314 314 313 298 318 321 324 327 325 318 311 311 315 312 311 316 312 316 317 318 319 318 317 319 318 319 319 323 323 324 325 324
312 312 312 313 313 313 313 313 313 313 313 313 314 314 311 305 306 317 324 324 318 317 318 311 309 312 311 313 314 312 314 317 318 319 319 320 317 317 318 322 324 324 324 324 324
311 311 312 313 313 313 314 313 313 313 313 313 313 313 309 298 313 314 314 315 315 315 316 314 312 314 313 314 313 315 315 315 316 316 318 316 316 318 319 322 322 322 322 323 324
311 312 312 312 313 312 313 313 313 313 312 313 314 312 305 302 311 312 312 311 313 313 311 315 317 313 314 311 316 315 311 314 314 315 314 316 312 313 319 321 320 320 321 322 323
312 312 312 312 312 312 312 313 313 312 313 313 313 311 302 310 312 308 310 309 311 313 313 315 316 314 312 315 313 310 311 305 312 314 314 314 306 314 319 318 317 319 320 321 322
312 312 311 312 312 312 312 312 312 312 313 314 311 307 299 312 306 309 310 305 308 311 313 313 312 308 310 306 304 308 302 305 308 314 313 311 308 315 319 318 317 319 320 319 321
312 312 312 311 311 312 312 311 312 312 312 314 311 303 305 300 304 308 311 308 306 308 308 307 307 303 303 303 296 300 302 304 304 310 312 310 309 314 317 316 316 317 318 319 320
311 311 311 311 311 311 310 310 307 305 309 303 301 301 302 305 307 304 306 305 307 305 300 305 300 297 300 303 305 305 304 304 307 312 309 308 309 312 315 315 315 316 318 319 319
311 310 311 311 311 311 311 303 303 304 296 303 302 302 304 305 298 301 306 299 300 297 301 300 297 302 304 304 303 303 302 303 307 310 308 308 308 312 314 314 315 316 316 317 319
311 310 310 310 310 309 306 305 310 308 296 298 301 300 301 303 299 300 303 300 296 295 298 296 300 304 302 302 301 302 301 302 303 308 309 307 305 308 312 313 314 315 316 317 318
311 311 310 309 305 307 304 308 310 309 290 292 296 299 302 303 298 306 306 302 297 293 297 299 302 301 301 299 301 298 305 305 304 303 298 307 297 305 309 310 312 314 316 317 319
310 310 310 308 306 303 306 310 310 305 278 293 295 307 302 298 299 300 307 303 294 294 295 294 298 299 299 300 303 301 306 305 304 302 301 301 298 302 308 306 309 313 315 317 319
310 309 308 309 309 308 310 309 304 287 279 289 296 294 295 297 297 299 301 305 302 296 296 296 302 302 301 303 304 305 303 304 304 302 295 300 299 299 304 307 310 314 316 317 319
309 308 307 310 303 311 310 303 286 281 291 287 289 293 292 291 293 294 293 294 294 289 289 293 296 302 304 300 304 304 301 294 292 293 293 302 299 301 308 310 311 312 314 318 321
308 306 307 310 312 310 306 292 281 287 287 292 291 291 288 291 291 291 292 290 294 294 292 288 286 296 302 301 299 301 301 295 289 291 295 302 296 302 311 313 314 315 316 322 324
306 311 306 310 312 310 299 284 284 288 291 289 290 287 288 290 291 290 290 289 294 295 290 290 289 299 301 303 303 300 298 304 299 301 297 300 303 309 311 312 313 314 316 317 324
307 306 306 311 313 305 295 286 288 292 293 292 285 289 285 287 288 289 289 293 292 295 298 295 289 297 301 303 303 302 305 297 300 292 291 297 298 299 306 309 311 313 316 321 325
307 301 307 311 310 298 289 289 291 294 294 290 288 288 288 287 288 288 288 292 294 294 298 297 294 295 299 298 297 300 299 301 302 300 294 292 296 307 308 310 312 314 318 323 325
304 295 307 310 295 297 291 292 293 293 295 293 293 292 289 289 288 289 288 291 295 296 292 298 294 292 295 302 304 303 302 302 297 296 299 298 298 312 312 313 316 317 321 324 325
300 300 308 305 290 289 293 292 293 292 292 291 290 292 294 290 286 290 291 293 296 293 290 295 292 287 293 299 301 299 302 304 304 305 298 295 298 310 313 315 316 318 322 323 324
300 295 301 302 297 291 290 291 289 295 293 293 292 293 291 289 292 287 289 291 294 294 296 295 293 291 290 295 299 297 300 303 303 299 299 299 301 308 311 312 316 320 322 322 324
302 296 297 292 293 291 292 291 289 289 294 295 292 290 290 287 289 286 289 292 294 296 293 294 290 292 294 300 299 299 300 301 301 302 299 301 301 305 311 313 314 321 322 322 322
297 294 298 293 294 291 292 291 289 291 292 290 290 292 292 289 289 288 291 292 290 294 292 296 291 293 290 296 299 297 300 301 301 303 303 303 303 309 312 314 318 319 320 321 321
304 301 298 293 292 290 291 290 290 292 294 294 293 293 291 293 296 297 297 296 294 292 291 292 294 290 286 296 298 295 299 301 302 304 304 300 307 312 312 314 315 317 321 321 322
Wind_Speed
16 16 15 15 15 16 17 15 15 16 15 16 18 18 19 19 23 17 17 10 11 15 9 11 14 16 15 17 23 17 16 18 24 22 19 20 15 16 1 10 16 14 13 14 16
17 17 16 16 16 15 15 16 17 16 15 15 16 17 19 19 22 20 13 8 10 11 14 17 18 18 18 20 20 21 18 25 23 20 18 21 22 19 17 13 16 16 18 18 12
17 17 18 18 18 17 16 15 15 16 16 15 15 17 19 22 15 10 10 11 3 11 20 21 20 21 24 22 23 25 25 25 24 24 25 25 27 25 21 21 22 18 18 19 19
16 16 17 18 19 19 19 19 17 16 15 15 14 15 18 13 10 10 4 4 6 13 20 24 26 27 26 28 25 29 31 28 28 29 29 32 31 29 24 21 23 19 18 19 21
16 17 17 18 18 19 19 19 19 18 17 16 14 13 13 11 16 10 9 9 12 9 19 27 30 29 33 28 28 33 31 30 31 31 34 31 29 33 26 22 24 25 20 22 21
17 18 18 19 19 19 18 18 17 17 18 16 14 12 15 23 10 9 11 14 14 14 16 22 28 29 32 32 33 32 32 33 33 33 31 34 33 29 26 25 28 27 22 24 25
17 17 18 19 20 20 19 17 17 18 19 17 15 13 17 22 18 18 17 17 17 16 18 18 22 27 25 33 30 33 36 35 34 31 32 23 32 36 29 27 28 29 24 25 23
18 18 20 21 20 19 19 19 21 22 22 18 13 14 17 16 18 20 19 19 19 19 20 20 15 24 29 23 27 33 32 30 32 34 31 28 35 30 27 27 29 26 21 24 18
17 17 18 20 20 22 24 25 25 23 17 10 11 12 18 3 16 12 18 17 17 20 20 17 18 18 19 23 23 26 28 38 32 30 29 31 37 31 27 26 27 28 28 17 20
18 18 18 19 19 20 20 28 22 13 10 12 12 10 13 14 6 1 4 12 15 16 20 24 14 19 20 23 29 29 32 31 33 28 28 33 35 32 28 21 25 27 26 23 20
21 19 18 18 19 20 20 17 5 10 15 14 13 13 21 13 10 15 11 12 13 14 25 24 19 29 44 33 30 29 26 31 32 28 28 29 30 31 19 23 27 27 28 22 21
21 22 21 20 20 22 15 10 10 9 13 22 23 26 24 21 22 20 19 19 18 20 22 26 34 46 24 31 32 31 32 32 29 27 21 22 23 25 25 24 25 27 26 24 24
19 19 21 21 22 15 10 9 9 11 11 24 24 21 19 14 19 19 20 21 24 23 25 30 43 25 33 30 31 32 31 29 29 24 20 19 27 27 24 27 26 28 29 28 27
19 19 19 19 14 13 8 7 9 9 9 20 10 6 9 8 13 12 14 17 24 29 25 28 32 34 32 36 34 32 28 27 23 20 18 20 22 23 20 23 24 22 22 21 20
22 22 19 10 13 9 11 9 10 4 8 6 9 9 5 8 9 5 7 13 19 23 20 33 30 36 36 39 30 33 25 24 23 21 22 23 18 16 21 22 24 24 22 21 19
24 23 17 7 9 9 10 8 6 7 9 3 5 4 9 11 13 9 9 13 11 18 29 32 28 28 39 34 30 26 27 24 18 17 21 21 20 22 19 20 18 13 13 17 18
26 23 13 9 7 9 9 5 6 9 3 6 10 14 12 16 15 18 13 11 15 15 21 29 31 29 31 33 36 29 22 16 16 19 19 18 19 20 18 17 18 16 16 3 6
26 23 7 7 7 8 5 4 9 14 13 16 17 15 17 18 20 15 12 14 20 20 20 22 27 33 26 34 36 31 29 15 26 11 16 23 17 16 14 9 10 13 11 13 6
30 4 2 3 8 4 3 6 7 17 17 13 17 16 20 9 11 10 15 16 4 8 8 20 28 27 35 25 26 37 30 30 22 22 12 14 10 14 17 14 13 13 9 9 11
10 5 2 4 2 5 4 7 10 8 11 15 18 14 14 17 12 11 11 2 8 7 12 18 24 26 27 27 33 36 25 26 22 23 14 14 8 10 5 9 7 13 10 13 14
8 2 4 6 4 5 5 9 14 14 13 10 20 19 17 11 13 14 4 5 6 13 11 22 13 16 29 33 32 29 26 29 20 17 14 12 10 4 5 10 7 13 12 15 16
7 4 6 5 3 3 6 16 16 16 13 14 15 16 15 15 15 19 11 4 1 11 12 17 6 11 18 30 30 30 27 32 16 22 17 9 6 6 5 3 3 3 13 16 17
8 4 6 2 5 7 14 17 12 12 14 14 7 16 16 14 9 8 13 11 11 5 6 10 9 10 13 18 28 33 31 26 28 15 19 10 2 10 7 8 1 5 15 16 18
7 5 2 2 3 9 14 15 14 12 15 11 18 10 13 17 2 4 7 5 10 7 13 11 11 15 6 13 22 30 36 31 29 16 16 17 11 10 9 10 9 8 14 17 17
4 6 5 6 8 12 15 14 16 12 9 18 11 7 12 17 17 2 6 15 7 11 5 7 19 21 12 25 25 24 27 25 30 21 18 15 15 13 13 11 6 9 15 17 17
5 6 9 13 8 13 10 12 15 18 11 12 13 17 16 15 15 17 13 13 7 5 3 10 22 21 14 23 26 30 30 27 24 25 15 9 15 11 1 11 14 7 14 15 17
2 5 3 10 6 7 10 14 20 19 9 12 14 17 16 15 19 20 17 16 15 15 13 7 10 8 15 20 19 17 30 26 24 24 20 12 9 8 13 14 9 9 5 12 13
Wind_Direction
358 357 355 352 350 347 344 337 335 340 339 338 336 335 328 322 304 272 249 247 205 163 205 207 215 207 220 233 231 236 252 251 252 258 264 263 245 244 162 286 298 299 288 284 275
354 352 350 349 345 344 340 338 338 334 330 333 334 328 323 321 301 276 245 132 139 171 213 220 211 211 219 218 223 226 241 241 257 265 275 283 289 287 269 238 261 272 280 272 312
350 346 345 345 340 338 336 333 331 330 328 329 327 327 322 313 288 273 34 53 75 219 244 243 235 215 230 234 223 232 240 252 260 266 277 282 275 281 272 275 281 287 294 303 296
344 342 343 339 335 333 332 330 329 324 323 319 320 319 316 302 257 82 44 22 286 247 231 236 239 233 232 235 232 243 238 247 261 269 279 276 281 282 269 277 279 284 284 296 294
339 343 341 335 329 326 324 324 323 321 316 315 310 313 306 241 246 284 188 218 283 250 227 224 224 226 234 234 243 238 244 252 260 266 267 270 272 281 272 271 279 286 284 276 276
344 339 334 329 326 323 318 313 310 307 304 303 301 298 266 266 275 297 308 279 260 266 237 232 237 234 242 241 241 246 253 254 258 264 264 267 272 265 260 259 266 274 265 273 273
335 335 331 328 325 321 315 308 301 296 296 293 288 270 268 261 294 298 283 275 278 272 265 254 242 246 245 250 249 258 259 260 255 255 261 268 270 263 265 266 268 271 267 267 265
330 328 329 326 322 316 311 303 294 291 290 286 267 257 260 272 278 264 257 261 252 245 250 277 279 247 246 262 253 251 254 260 252 252 248 246 260 263 273 272 263 272 264 276 262
334 331 324 321 320 318 314 305 294 283 275 251 219 222 261 143 232 253 249 260 267 255 237 239 259 253 237 239 251 243 243 241 253 247 251 244 252 256 255 266 273 265 263 274 269
334 334 329 326 321 312 303 288 280 290 227 201 239 226 245 259 273 323 289 272 264 246 239 217 226 236 231 222 225 228 237 246 257 260 249 250 254 259 258 269 267 269 276 258 263
338 335 330 323 315 311 310 292 204 208 217 260 293 226 296 280 251 257 246 273 247 236 226 211 214 220 220 219 238 244 249 249 249 253 241 252 264 274 276 256 262 269 273 270 269
338 335 332 326 315 307 287 324 346 310 294 281 272 262 260 275 273 261 257 248 239 238 221 220 217 223 226 230 229 243 249 251 263 269 275 274 275 272 270 277 280 277 280 278 271
333 329 326 325 314 287 320 317 328 306 275 280 264 261 249 235 251 246 238 225 238 243 230 223 230 222 227 232 234 230 236 246 255 266 273 280 270 266 263 265 262 261 262 259 258
329 324 323 329 279 339 302 15 295 334 278 264 192 204 175 226 249 226 239 248 231 236 242 238 238 235 224 230 230 237 230 244 260 271 261 254 269 262 268 270 271 274 271 268 261
329 323 316 310 304 305 351 322 338 289 280 99 118 105 255 222 320 156 233 212 246 244 223 241 227 230 238 226 225 241 237 240 237 249 262 255 260 273 265 265 262 260 255 258 255
326 326 328 255 228 304 320 311 271 238 245 98 157 356 243 239 247 260 211 208 264 242 254 245 249 238 235 242 227 236 235 242 245 254 247 244 257 266 271 273 280 306 264 252 243
326 324 313 310 344 332 312 293 244 253 12 48 4 303 270 287 280 266 254 253 245 211 234 243 248 248 242 223 237 220 217 223 226 226 246 247 247 261 274 282 287 289 279 113 58
322 313 170 349 317 311 326 260 251 344 20 343 335 313 294 277 263 263 253 258 249 247 270 225 228 233 233 230 216 217 208 213 218 215 234 223 243 255 266 289 268 284 228 129 154
311 211 165 18 336 324 247 252 323 358 349 333 317 295 272 311 325 283 255 272 311 2 291 251 240 228 227 233 229 212 210 217 250 216 251 245 200 241 248 250 232 237 194 174 144
307 288 245 30 317 267 276 301 335 360 325 312 305 294 317 322 293 271 286 171 315 298 260 278 261 230 222 223 238 229 203 209 223 239 219 235 254 264 194 313 196 196 176 129 148
257 278 114 314 189 273 299 328 336 337 324 323 309 309 311 336 299 298 228 210 208 292 267 278 304 248 233 213 216 207 209 212 219 229 229 246 256 69 265 246 261 197 146 144 153
284 287 59 297 278 278 300 332 301 299 316 314 343 306 310 306 288 287 215 341 122 323 301 274 259 271 237 211 220 213 208 202 216 207 238 211 227 152 88 274 257 306 124 150 151
295 271 140 307 349 327 311 319 332 324 309 315 285 307 309 319 309 343 1 356 338 359 306 8 238 263 206 224 201 211 212 198 222 223 206 231 242 162 145 93 126 204 138 154 149
288 302 79 27 359 320 321 312 327 342 322 316 306 335 311 301 127 257 348 349 289 274 270 279 264 256 250 232 196 211 199 204 201 214 189 212 181 145 135 91 77 125 143 152 159
283 32 18 305 329 314 299 292 314 332 326 302 294 291 276 314 312 309 258 273 278 244 243 264 241 238 257 284 212 209 206 196 191 209 223 179 235 167 142 84 56 139 162 156 158
334 349 337 294 290 307 329 314 332 331 334 313 328 320 316 306 312 309 318 302 276 251 284 281 258 238 251 289 286 199 213 201 195 206 213 204 204 221 151 85 49 145 168 169 168
350 278 338 290 296 313 311 327 309 316 310 284 304 317 311 312 317 306 294 283 280 280 301 280 302 247 245 249 240 222 197 194 199 200 211 190 104 62 56 44 36 343 189 182 172